Weather History for Upington, South Africa

Change the Weather History Date:

Tuesday, October 11, 2011

  Actual Average Record
Temperature  
Mean Temperature 77 °F -  
Max Temperature 99 °F 86 °F 102 °F (2001)
Min Temperature 55 °F 57 °F 45 °F (2012)
Cooling Degree Days 12    
Growing Degree Days 27 (Base 50)    
Moisture  
Dew Point 22 °F    
Average Humidity 13    
Maximum Humidity 33    
Minimum Humidity 4    
Precipitation  
Precipitation 0.00 in 0.00 in - ()
Sea Level Pressure  
Sea Level Pressure 30.04 in    
Wind  
Wind Speed 5 mph ()    
Max Wind Speed 13 mph    
Max Gust Speed -    
Averages and records for this station are not official NWS values.
T = Trace of Precipitation, MM = Missing Value Source: Averaged Metar Reports

Daily Weather History Graph

Daily Weather History Graph

Search for Another Location

Airport:

Trip Planner

Search our weather history database for the weather conditions in past years. The results will help you decide how hot, cold, wet, or windy it might be!

Date:

Astronomy

Oct. 11, 2011 Rise Set
Actual Time 6:03 AM SAST 6:40 PM SAST
Civil Twilight 5:39 AM SAST 7:04 PM SAST
Nautical Twilight 5:11 AM SAST 7:32 PM SAST
Astronomical Twilight 4:42 AM SAST 8:01 PM SAST
Moon 6:19 PM SAST (10/11) 5:19 AM SAST (10/11)
Length of Visible Light 13h 25m
Length of Day
12h 37m
Full, 100% of the Moon is Illuminated
Oct 11
Full
Oct 12
Full
Oct 20
Last Quarter
Oct 26
New
Nov 2
First Quarter

Hourly Weather History & Observations

Time (SAST) Temp. Dew Point Humidity Pressure Visibility Wind Dir Wind Speed Gust Speed Precip Events Conditions
12:00 AM 62.6 °F 21.2 °F 20% 30.09 in - West 4.6 mph - N/A   Unknown
1:00 AM 66.2 °F 21.2 °F 18% 30.06 in - NNW 6.9 mph - N/A   Clear
2:00 AM 62 °F 22 °F 11%  in 25 mi ENE 6.9 mph - -  
2:00 AM 60.8 °F 23.0 °F 23% 30.06 in - ENE 6.9 mph - N/A   Clear
3:00 AM 60.8 °F 23.0 °F 23% 30.04 in - East 8.1 mph - N/A   Clear
4:00 AM 60.8 °F 21.2 °F 22% 30.04 in - ENE 4.6 mph - N/A   Clear
5:00 AM 60 °F 21 °F 12%  in 25 mi East 2.3 mph - -  
5:00 AM 59.0 °F 21.2 °F 23% 30.06 in - East 1.2 mph - N/A   Clear
6:00 AM 55.4 °F 26.6 °F 33% 30.06 in - East 4.6 mph - N/A   Clear
7:00 AM 60.8 °F 30.2 °F 31% 30.09 in - South 3.5 mph - N/A   Clear
7:12 AM 66.2 °F 24.8 °F 21% 30.09 in - SSE 1.2 mph - N/A   Clear
7:31 AM 69.8 °F 26.6 °F 20% 30.09 in - East 2.3 mph - N/A   Clear
8:00 AM 72 °F 24 °F 8%  in 25 mi SE 2.3 mph - -  
8:00 AM 71.6 °F 24.8 °F 17% 30.09 in - SE 2.3 mph - N/A   Clear
8:18 AM 75.2 °F 23.0 °F 14% 30.09 in - ESE 1.2 mph - N/A   Clear
8:40 AM 80.6 °F 24.8 °F 13% 30.09 in - ENE 1.2 mph - N/A   Clear
9:00 AM 80.6 °F 26.6 °F 14% 30.09 in - NE 1.2 mph - N/A   Clear
9:17 AM 86.0 °F 24.8 °F 11% 30.09 in - North 3.5 mph - N/A   Clear
9:28 AM 89.6 °F 24.8 °F 10% 30.09 in - North 5.8 mph - N/A   Clear
10:00 AM 91.4 °F 26.6 °F 10% 30.09 in - NW 8.1 mph - N/A   Clear
11:00 AM 95 °F 22 °F 4%  in 25 mi NW 9.2 mph - -  
11:00 AM 95.0 °F 23.0 °F 8% 30.06 in - NW 9.2 mph - N/A   Clear
12:00 PM 95.0 °F 23.0 °F 8% 30.04 in - North 10.4 mph - N/A   Clear
1:00 PM 95.0 °F 21.2 °F 7% 30.01 in - NNE 8.1 mph - N/A   Clear
2:00 PM 96 °F 20 °F 4%  in 25 mi North 12.7 mph - -  
2:00 PM 95.0 °F 21.2 °F 7% 30.01 in - North 11.5 mph - N/A   Clear
3:00 PM 95.0 °F 19.4 °F 6% 29.98 in - NW 5.8 mph - N/A   Clear
4:00 PM 96.8 °F 21.2 °F 7% 29.95 in - WNW 3.5 mph - N/A   Clear
5:00 PM 97 °F 20 °F 4%  in 25 mi North 6.9 mph - -  
5:00 PM 95.0 °F 21.2 °F 7% 29.92 in - North 6.9 mph - N/A   Clear
6:00 PM 91.4 °F 17.6 °F 7% 29.95 in - West 3.5 mph - N/A   Clear
7:00 PM 80.6 °F 21.2 °F 11% 29.95 in - WNW 4.6 mph - N/A   Clear
8:00 PM 74 °F 19 °F 6%  in 25 mi WNW 6.9 mph - -  
8:00 PM 73.4 °F 19.4 °F 13% 29.95 in - WNW 6.9 mph - N/A   Clear
9:00 PM 69.8 °F 19.4 °F 15% 29.98 in - SE 1.2 mph - N/A   Unknown
10:00 PM 69.8 °F 17.6 °F 14% 29.98 in - NW 4.6 mph - N/A   Unknown
11:00 PM 71 °F 16 °F 5%  in - North 4.6 mph - -  
11:00 PM 69.8 °F 17.6 °F 14% 29.98 in - North 3.5 mph - N/A   Unknown